Year,Month,Day,Hour,Minute,Value (Times are PST for windspeed in km/hr)
2015,08,29,00,00,2.80
2015,08,29,00,01,4.10
2015,08,29,00,02,1.70
2015,08,29,00,03,3.90
2015,08,29,00,04,2.70
2015,08,29,00,05,2.40
2015,08,29,00,06,3.10
2015,08,29,00,07,2.10
2015,08,29,00,08,3.20
2015,08,29,00,09,2.60
2015,08,29,00,10,2.60
2015,08,29,00,11,4.20
2015,08,29,00,12,3.40
2015,08,29,00,13,4.30
2015,08,29,00,14,2.20
2015,08,29,00,15,3.50
2015,08,29,00,16,3.50
2015,08,29,00,17,2.80
2015,08,29,00,18,2.00
2015,08,29,00,19,2.10
2015,08,29,00,20,2.90
2015,08,29,00,21,0.80
2015,08,29,00,22,2.60
2015,08,29,00,23,3.50
2015,08,29,00,24,1.60
2015,08,29,00,25,0.10
2015,08,29,00,26,1.90
2015,08,29,00,27,2.40
2015,08,29,00,28,1.50
2015,08,29,00,29,0.70
2015,08,29,00,30,0.60
2015,08,29,00,31,2.20
2015,08,29,00,32,1.50
2015,08,29,00,33,1.60
2015,08,29,00,34,1.70
2015,08,29,00,35,2.40
2015,08,29,00,36,2.40
2015,08,29,00,37,1.10
2015,08,29,00,38,1.50
2015,08,29,00,39,1.10
2015,08,29,00,40,3.00
2015,08,29,00,41,1.70
2015,08,29,00,42,1.80
2015,08,29,00,43,2.40
2015,08,29,00,44,4.50
2015,08,29,00,45,2.00
2015,08,29,00,46,1.30
2015,08,29,00,47,0.50
2015,08,29,00,48,1.40
2015,08,29,00,49,3.10
2015,08,29,00,50,3.50
2015,08,29,00,51,3.40
2015,08,29,00,52,2.20
2015,08,29,00,53,2.70
2015,08,29,00,54,2.40
2015,08,29,00,55,2.10
2015,08,29,00,56,3.00
2015,08,29,00,57,3.80
2015,08,29,00,58,4.30
2015,08,29,00,59,5.80
2015,08,29,01,00,4.30
2015,08,29,01,01,4.10
2015,08,29,01,02,2.70
2015,08,29,01,03,1.40
2015,08,29,01,04,3.10
2015,08,29,01,05,3.90
2015,08,29,01,06,3.30
2015,08,29,01,07,2.10
2015,08,29,01,08,4.20
2015,08,29,01,09,2.40
2015,08,29,01,10,2.40
2015,08,29,01,11,3.90
2015,08,29,01,12,3.10
2015,08,29,01,13,2.30
2015,08,29,01,14,2.70
2015,08,29,01,15,2.90
2015,08,29,01,16,3.20
2015,08,29,01,17,2.50
2015,08,29,01,18,3.70
2015,08,29,01,19,3.90
2015,08,29,01,20,3.20
2015,08,29,01,21,3.80
2015,08,29,01,22,2.50
2015,08,29,01,23,1.90
2015,08,29,01,24,0.90
2015,08,29,01,25,1.30
2015,08,29,01,26,2.70
2015,08,29,01,27,2.00
2015,08,29,01,28,1.70
2015,08,29,01,29,2.30
2015,08,29,01,30,1.90
2015,08,29,01,31,2.40
2015,08,29,01,32,1.70
2015,08,29,01,33,1.70
2015,08,29,01,34,2.00
2015,08,29,01,35,2.00
2015,08,29,01,36,1.70
2015,08,29,01,37,1.70
2015,08,29,01,38,2.40
2015,08,29,01,39,2.10
2015,08,29,01,40,2.00
2015,08,29,01,41,1.90
2015,08,29,01,42,0.80
2015,08,29,01,43,0.80
2015,08,29,01,44,1.10
2015,08,29,01,45,2.20
2015,08,29,01,46,1.10
2015,08,29,01,47,0.30
2015,08,29,01,48,1.20
2015,08,29,01,49,0.70
2015,08,29,01,50,0.00
2015,08,29,01,51,0.00
2015,08,29,01,52,0.00
2015,08,29,01,53,0.00
2015,08,29,01,54,0.00
2015,08,29,01,55,0.00
2015,08,29,01,56,0.00
2015,08,29,01,57,0.00
2015,08,29,01,58,1.00
2015,08,29,01,59,0.90
2015,08,29,02,00,1.10
2015,08,29,02,01,2.00
2015,08,29,02,02,3.60
2015,08,29,02,03,1.80
2015,08,29,02,04,1.20
2015,08,29,02,05,1.80
2015,08,29,02,06,0.80
2015,08,29,02,07,1.50
2015,08,29,02,08,1.80
2015,08,29,02,09,1.50
2015,08,29,02,10,1.80
2015,08,29,02,11,3.70
2015,08,29,02,12,3.90
2015,08,29,02,13,2.80
2015,08,29,02,14,2.40
2015,08,29,02,15,3.20
2015,08,29,02,16,1.40
2015,08,29,02,17,2.70
2015,08,29,02,18,3.00
2015,08,29,02,19,2.30
2015,08,29,02,20,1.10
2015,08,29,02,21,3.20
2015,08,29,02,22,2.60
2015,08,29,02,23,2.90
2015,08,29,02,24,3.60
2015,08,29,02,25,1.80
2015,08,29,02,26,0.40
2015,08,29,02,27,2.00
2015,08,29,02,28,3.00
2015,08,29,02,29,2.30
2015,08,29,02,30,1.90
2015,08,29,02,31,1.80
2015,08,29,02,32,2.00
2015,08,29,02,33,1.40
2015,08,29,02,34,2.00
2015,08,29,02,35,1.10
2015,08,29,02,36,1.50
2015,08,29,02,37,1.80
2015,08,29,02,38,0.60
2015,08,29,02,39,2.60
2015,08,29,02,40,2.30
2015,08,29,02,41,2.10
2015,08,29,02,42,3.20
2015,08,29,02,43,3.20
2015,08,29,02,44,2.40
2015,08,29,02,45,2.80
2015,08,29,02,46,4.50
2015,08,29,02,47,3.60
2015,08,29,02,48,6.20
2015,08,29,02,49,5.70
2015,08,29,02,50,2.50
2015,08,29,02,51,3.50
2015,08,29,02,52,3.40
2015,08,29,02,53,2.90
2015,08,29,02,54,3.70
2015,08,29,02,55,3.00
2015,08,29,02,56,1.20
2015,08,29,02,57,2.90
2015,08,29,02,58,3.20
2015,08,29,02,59,1.20
2015,08,29,03,00,4.50
2015,08,29,03,01,3.40
2015,08,29,03,02,0.80
2015,08,29,03,03,3.10
2015,08,29,03,04,3.70
2015,08,29,03,05,5.80
2015,08,29,03,06,2.70
2015,08,29,03,07,4.20
2015,08,29,03,08,4.60
2015,08,29,03,09,5.80
2015,08,29,03,10,3.90
2015,08,29,03,11,4.60
2015,08,29,03,12,5.00
2015,08,29,03,13,4.80
2015,08,29,03,14,5.40
2015,08,29,03,15,2.30
2015,08,29,03,16,4.70
2015,08,29,03,17,5.10
2015,08,29,03,18,2.90
2015,08,29,03,19,2.40
2015,08,29,03,20,2.50
2015,08,29,03,21,1.00
2015,08,29,03,22,0.40
2015,08,29,03,23,2.80
2015,08,29,03,24,2.90
2015,08,29,03,25,3.90
2015,08,29,03,26,3.30
2015,08,29,03,27,5.30
2015,08,29,03,28,5.80
2015,08,29,03,29,6.70
2015,08,29,03,30,8.00
2015,08,29,03,31,4.20
2015,08,29,03,32,4.40
2015,08,29,03,33,3.40
2015,08,29,03,34,7.50
2015,08,29,03,35,6.10
2015,08,29,03,36,4.80
2015,08,29,03,37,3.20
2015,08,29,03,38,2.50
2015,08,29,03,39,3.70
2015,08,29,03,40,3.60
2015,08,29,03,41,2.30
2015,08,29,03,42,4.50
2015,08,29,03,43,4.40
2015,08,29,03,44,2.70
2015,08,29,03,45,5.90
2015,08,29,03,46,2.70
2015,08,29,03,47,4.50
2015,08,29,03,48,7.30
2015,08,29,03,49,3.20
2015,08,29,03,50,8.10
2015,08,29,03,51,7.40
2015,08,29,03,52,6.30
2015,08,29,03,53,2.80
2015,08,29,03,54,5.10
2015,08,29,03,55,2.40
2015,08,29,03,56,2.20
2015,08,29,03,57,4.30
2015,08,29,03,58,8.20
2015,08,29,03,59,3.90
2015,08,29,04,00,2.10
2015,08,29,04,01,3.60
2015,08,29,04,02,4.90
2015,08,29,04,03,5.10
2015,08,29,04,04,4.30
2015,08,29,04,05,1.70
2015,08,29,04,06,5.10
2015,08,29,04,07,4.90
2015,08,29,04,08,4.00
2015,08,29,04,09,1.90
2015,08,29,04,10,2.50
2015,08,29,04,11,1.60
2015,08,29,04,12,2.10
2015,08,29,04,13,1.90
2015,08,29,04,14,1.80
2015,08,29,04,15,2.30
2015,08,29,04,16,3.50
2015,08,29,04,17,3.90
2015,08,29,04,18,2.00
2015,08,29,04,19,1.60
2015,08,29,04,20,0.70
2015,08,29,04,21,2.80
2015,08,29,04,22,2.80
2015,08,29,04,23,3.90
2015,08,29,04,24,2.00
2015,08,29,04,25,0.70
2015,08,29,04,26,1.40
2015,08,29,04,27,2.70
2015,08,29,04,28,2.60
2015,08,29,04,29,3.70
2015,08,29,04,30,2.30
2015,08,29,04,31,2.10
2015,08,29,04,32,0.20
2015,08,29,04,33,0.00
2015,08,29,04,34,0.00
2015,08,29,04,35,0.10
2015,08,29,04,36,1.80
2015,08,29,04,37,1.10
2015,08,29,04,38,0.00
2015,08,29,04,39,0.00
2015,08,29,04,40,0.00
2015,08,29,04,41,0.00
2015,08,29,04,42,0.00
2015,08,29,04,43,0.00
2015,08,29,04,44,0.00
2015,08,29,04,45,0.00
2015,08,29,04,46,0.00
2015,08,29,04,47,0.00
2015,08,29,04,48,0.00
2015,08,29,04,49,0.00
2015,08,29,04,50,0.00
2015,08,29,04,51,0.00
2015,08,29,04,52,0.00
2015,08,29,04,53,0.00
2015,08,29,04,54,0.00
2015,08,29,04,55,0.00
2015,08,29,04,56,0.00
2015,08,29,04,57,0.00
2015,08,29,04,58,0.00
2015,08,29,04,59,0.00
2015,08,29,05,00,0.00
2015,08,29,05,01,0.00
2015,08,29,05,02,0.00
2015,08,29,05,03,0.00
2015,08,29,05,04,1.70
2015,08,29,05,05,1.80
2015,08,29,05,06,2.10
2015,08,29,05,07,3.40
2015,08,29,05,08,3.10
2015,08,29,05,09,3.50
2015,08,29,05,10,1.60
2015,08,29,05,11,1.40
2015,08,29,05,12,2.60
2015,08,29,05,13,1.60
2015,08,29,05,14,2.10
2015,08,29,05,15,1.50
2015,08,29,05,16,1.10
2015,08,29,05,17,0.80
2015,08,29,05,18,0.50
2015,08,29,05,19,0.10
2015,08,29,05,20,0.00
2015,08,29,05,21,0.00
2015,08,29,05,22,0.00
2015,08,29,05,23,0.00
2015,08,29,05,24,0.00
2015,08,29,05,25,0.00
2015,08,29,05,26,1.00
2015,08,29,05,27,0.30
2015,08,29,05,28,0.40
2015,08,29,05,29,0.20
2015,08,29,05,30,0.20
2015,08,29,05,31,3.40
2015,08,29,05,32,2.60
2015,08,29,05,33,2.80
2015,08,29,05,34,1.10
2015,08,29,05,35,2.30
2015,08,29,05,36,1.70
2015,08,29,05,37,1.30
2015,08,29,05,38,1.70
2015,08,29,05,39,2.10
2015,08,29,05,40,2.90
2015,08,29,05,41,2.70
2015,08,29,05,42,2.50
2015,08,29,05,43,1.80
2015,08,29,05,44,1.10
2015,08,29,05,45,2.30
2015,08,29,05,46,1.70
2015,08,29,05,47,0.80
2015,08,29,05,48,1.40
2015,08,29,05,49,2.70
2015,08,29,05,50,2.40
2015,08,29,05,51,0.90
2015,08,29,05,52,2.50
2015,08,29,05,53,3.30
2015,08,29,05,54,2.40
2015,08,29,05,55,2.30
2015,08,29,05,56,2.30
2015,08,29,05,57,1.30
2015,08,29,05,58,0.50
2015,08,29,05,59,0.70
2015,08,29,06,00,0.00
2015,08,29,06,01,0.00
2015,08,29,06,02,0.00
2015,08,29,06,03,0.00
2015,08,29,06,04,0.00
2015,08,29,06,05,1.60
2015,08,29,06,06,1.00
2015,08,29,06,07,0.40
2015,08,29,06,08,0.80
2015,08,29,06,09,0.10
2015,08,29,06,10,1.60
2015,08,29,06,11,1.10
2015,08,29,06,12,1.70
2015,08,29,06,13,0.10
2015,08,29,06,14,1.10
2015,08,29,06,15,0.40
2015,08,29,06,16,2.10
2015,08,29,06,17,1.60
2015,08,29,06,18,2.70
2015,08,29,06,19,2.20
2015,08,29,06,20,2.30
2015,08,29,06,21,0.50
2015,08,29,06,22,1.90
2015,08,29,06,23,0.20
2015,08,29,06,24,0.40
2015,08,29,06,25,0.80
2015,08,29,06,26,0.40
2015,08,29,06,27,1.40
2015,08,29,06,28,2.00
2015,08,29,06,29,2.00
2015,08,29,06,30,1.50
2015,08,29,06,31,2.60
2015,08,29,06,32,1.40
2015,08,29,06,33,0.50
2015,08,29,06,34,0.40
2015,08,29,06,35,1.30
2015,08,29,06,36,1.10
2015,08,29,06,37,0.90
2015,08,29,06,38,1.40
2015,08,29,06,39,0.40
2015,08,29,06,40,0.50
2015,08,29,06,41,0.40
2015,08,29,06,42,1.00
2015,08,29,06,43,2.10
2015,08,29,06,44,2.00
2015,08,29,06,45,1.10
2015,08,29,06,46,0.40
2015,08,29,06,47,0.90
2015,08,29,06,48,0.50
2015,08,29,06,49,1.40
2015,08,29,06,50,1.20
2015,08,29,06,51,1.90
2015,08,29,06,52,1.20
2015,08,29,06,53,1.60
2015,08,29,06,54,1.40
2015,08,29,06,55,1.70
2015,08,29,06,56,1.90
2015,08,29,06,57,1.10
2015,08,29,06,58,1.60
2015,08,29,06,59,3.80
2015,08,29,07,00,3.50
2015,08,29,07,01,1.40
2015,08,29,07,02,1.30
2015,08,29,07,03,3.00
2015,08,29,07,04,3.50
2015,08,29,07,05,1.80
2015,08,29,07,06,1.30
2015,08,29,07,07,0.60
2015,08,29,07,08,0.70
2015,08,29,07,09,2.00
2015,08,29,07,10,1.90
2015,08,29,07,11,0.50
2015,08,29,07,12,0.50
2015,08,29,07,13,0.80
2015,08,29,07,14,2.00
2015,08,29,07,15,0.50
2015,08,29,07,16,1.30
2015,08,29,07,17,0.50
2015,08,29,07,18,1.60
2015,08,29,07,19,0.00
2015,08,29,07,20,0.00
2015,08,29,07,21,2.30
2015,08,29,07,22,2.10
2015,08,29,07,23,1.60
2015,08,29,07,24,1.00
2015,08,29,07,25,2.80
2015,08,29,07,26,1.10
2015,08,29,07,27,0.10
2015,08,29,07,28,3.00
2015,08,29,07,29,1.00
2015,08,29,07,30,0.00
2015,08,29,07,31,0.00
2015,08,29,07,32,1.20
2015,08,29,07,33,3.70
2015,08,29,07,34,3.60
2015,08,29,07,35,3.40
2015,08,29,07,36,1.60
2015,08,29,07,37,1.70
2015,08,29,07,38,1.00
2015,08,29,07,39,0.10
2015,08,29,07,40,1.10
2015,08,29,07,41,2.40
2015,08,29,07,42,1.30
2015,08,29,07,43,0.00
2015,08,29,07,44,0.40
2015,08,29,07,45,2.20
2015,08,29,07,46,2.20
2015,08,29,07,47,3.20
2015,08,29,07,48,3.40
2015,08,29,07,49,2.00
2015,08,29,07,50,3.00
2015,08,29,07,51,1.00
2015,08,29,07,52,1.90
2015,08,29,07,53,1.20
2015,08,29,07,54,1.30
2015,08,29,07,55,1.40
2015,08,29,07,56,1.90
2015,08,29,07,57,1.20
2015,08,29,07,58,2.20
2015,08,29,07,59,4.30
2015,08,29,08,00,2.40
2015,08,29,08,01,1.90
2015,08,29,08,02,0.40
2015,08,29,08,03,0.10
2015,08,29,08,04,0.70
2015,08,29,08,05,0.00
2015,08,29,08,06,0.00
2015,08,29,08,07,0.20
2015,08,29,08,08,0.70
2015,08,29,08,09,0.10
2015,08,29,08,10,0.20
2015,08,29,08,11,1.70
2015,08,29,08,12,1.60
2015,08,29,08,13,2.60
2015,08,29,08,14,2.10
2015,08,29,08,15,2.70
2015,08,29,08,16,1.00
2015,08,29,08,17,0.50
2015,08,29,08,18,1.00
2015,08,29,08,19,0.10
2015,08,29,08,20,0.00
2015,08,29,08,21,2.20
2015,08,29,08,22,1.10
2015,08,29,08,23,1.50
2015,08,29,08,24,1.00
2015,08,29,08,25,0.80
2015,08,29,08,26,1.10
2015,08,29,08,27,2.40
2015,08,29,08,28,4.20
2015,08,29,08,29,4.30
2015,08,29,08,30,2.40
2015,08,29,08,31,6.40
2015,08,29,08,32,6.60
2015,08,29,08,33,4.70
2015,08,29,08,34,4.30
2015,08,29,08,35,8.70
2015,08,29,08,36,11.90
2015,08,29,08,37,7.20
2015,08,29,08,38,6.30
2015,08,29,08,39,10.10
2015,08,29,08,40,5.70
2015,08,29,08,41,7.30
2015,08,29,08,42,9.20
2015,08,29,08,43,8.20
2015,08,29,08,44,5.10
2015,08,29,08,45,8.40
2015,08,29,08,46,7.10
2015,08,29,08,47,3.30
2015,08,29,08,48,7.80
2015,08,29,08,49,7.60
2015,08,29,08,50,3.20
2015,08,29,08,51,1.70
2015,08,29,08,52,3.50
2015,08,29,08,53,2.60
2015,08,29,08,54,4.80
2015,08,29,08,55,4.80
2015,08,29,08,56,3.00
2015,08,29,08,57,1.90
2015,08,29,08,58,3.60
2015,08,29,08,59,5.20
2015,08,29,09,00,6.90
2015,08,29,09,01,7.60
2015,08,29,09,02,3.00
2015,08,29,09,03,6.10
2015,08,29,09,04,5.70
2015,08,29,09,05,8.20
2015,08,29,09,06,7.10
2015,08,29,09,07,11.30
2015,08,29,09,08,11.60
2015,08,29,09,09,8.30
2015,08,29,09,10,10.50
2015,08,29,09,11,12.90
2015,08,29,09,12,8.30
2015,08,29,09,13,6.80
2015,08,29,09,14,7.80
2015,08,29,09,15,7.20
2015,08,29,09,16,12.30
2015,08,29,09,17,17.00
2015,08,29,09,18,9.80
2015,08,29,09,19,8.60
2015,08,29,09,20,11.90
2015,08,29,09,21,14.80
2015,08,29,09,22,17.50
2015,08,29,09,23,16.80
2015,08,29,09,24,6.70
2015,08,29,09,25,11.10
2015,08,29,09,26,11.30
2015,08,29,09,27,6.30
2015,08,29,09,28,12.40
2015,08,29,09,29,6.80
2015,08,29,09,30,7.40
2015,08,29,09,31,7.90
2015,08,29,09,32,6.70
2015,08,29,09,33,8.10
2015,08,29,09,34,6.70
2015,08,29,09,35,8.10
2015,08,29,09,36,7.70
2015,08,29,09,37,7.40
2015,08,29,09,38,14.20
2015,08,29,09,39,14.50
2015,08,29,09,40,8.60
2015,08,29,09,41,5.80
2015,08,29,09,42,13.40
2015,08,29,09,43,19.00
2015,08,29,09,44,13.70
2015,08,29,09,45,18.50
2015,08,29,09,46,12.40
2015,08,29,09,47,16.00
2015,08,29,09,48,17.10
2015,08,29,09,49,13.70
2015,08,29,09,50,14.20
2015,08,29,09,51,14.10
2015,08,29,09,52,13.40
2015,08,29,09,53,11.00
2015,08,29,09,54,12.20
2015,08,29,09,55,10.30
2015,08,29,09,56,11.80
2015,08,29,09,57,11.60
2015,08,29,09,58,13.10
2015,08,29,09,59,11.40
2015,08,29,10,00,7.30
2015,08,29,10,01,12.90
2015,08,29,10,02,12.90
2015,08,29,10,03,12.60
2015,08,29,10,04,12.10
2015,08,29,10,05,8.00
2015,08,29,10,06,11.50
2015,08,29,10,07,8.80
2015,08,29,10,08,12.90
2015,08,29,10,09,9.30
2015,08,29,10,10,12.40
2015,08,29,10,11,9.50
2015,08,29,10,12,11.80
2015,08,29,10,13,17.50
2015,08,29,10,14,12.00
2015,08,29,10,15,12.60
2015,08,29,10,16,12.90
2015,08,29,10,17,13.10
2015,08,29,10,18,12.20
2015,08,29,10,19,7.00
2015,08,29,10,20,10.50
2015,08,29,10,21,11.20
2015,08,29,10,22,10.10
2015,08,29,10,23,12.90
2015,08,29,10,24,9.80
2015,08,29,10,25,8.50
2015,08,29,10,26,16.30
2015,08,29,10,27,14.60
2015,08,29,10,28,11.00
2015,08,29,10,29,10.90
2015,08,29,10,30,14.80
2015,08,29,10,31,11.10
2015,08,29,10,32,17.90
2015,08,29,10,33,17.30
2015,08,29,10,34,13.10
2015,08,29,10,35,13.60
2015,08,29,10,36,9.80
2015,08,29,10,37,10.30
2015,08,29,10,38,20.80
2015,08,29,10,39,13.60
2015,08,29,10,40,12.80
2015,08,29,10,41,10.10
2015,08,29,10,42,12.20
2015,08,29,10,43,12.60
2015,08,29,10,44,15.40
2015,08,29,10,45,15.90
2015,08,29,10,46,13.90
2015,08,29,10,47,10.80
2015,08,29,10,48,6.80
2015,08,29,10,49,14.70
2015,08,29,10,50,18.80
2015,08,29,10,51,21.80
2015,08,29,10,52,22.30
2015,08,29,10,53,22.50
2015,08,29,10,54,17.20
2015,08,29,10,55,18.20
2015,08,29,10,56,18.40
2015,08,29,10,57,12.60
2015,08,29,10,58,14.80
2015,08,29,10,59,18.80
2015,08,29,11,00,16.00
2015,08,29,11,01,10.40
2015,08,29,11,02,15.70
2015,08,29,11,03,9.10
2015,08,29,11,04,11.80
2015,08,29,11,05,9.80
2015,08,29,11,06,13.50
2015,08,29,11,07,10.70
2015,08,29,11,08,6.10
2015,08,29,11,09,11.40
2015,08,29,11,10,18.20
2015,08,29,11,11,17.30
2015,08,29,11,12,10.50
2015,08,29,11,13,15.70
2015,08,29,11,14,14.10
2015,08,29,11,15,14.00
2015,08,29,11,16,11.70
2015,08,29,11,17,12.00
2015,08,29,11,18,7.80
2015,08,29,11,19,14.20
2015,08,29,11,20,11.80
2015,08,29,11,21,8.80
2015,08,29,11,22,12.00
2015,08,29,11,23,11.70
2015,08,29,11,24,15.90
2015,08,29,11,25,13.60
2015,08,29,11,26,10.40
2015,08,29,11,27,11.70
2015,08,29,11,28,15.30
2015,08,29,11,29,9.00
2015,08,29,11,30,9.40
2015,08,29,11,31,18.60
2015,08,29,11,32,14.70
2015,08,29,11,33,9.20
2015,08,29,11,34,14.30
2015,08,29,11,35,11.50
2015,08,29,11,36,6.10
2015,08,29,11,37,13.40
2015,08,29,11,38,10.60
2015,08,29,11,39,9.80
2015,08,29,11,40,13.50
2015,08,29,11,41,12.10
2015,08,29,11,42,17.50
2015,08,29,11,43,13.20
2015,08,29,11,44,7.30
2015,08,29,11,45,15.50
2015,08,29,11,46,10.40
2015,08,29,11,47,16.40
2015,08,29,11,48,16.60
2015,08,29,11,49,11.20
2015,08,29,11,50,13.60
2015,08,29,11,51,16.30
2015,08,29,11,52,21.00
2015,08,29,11,53,12.20
2015,08,29,11,54,11.00
2015,08,29,11,55,8.40
2015,08,29,11,56,12.40
2015,08,29,11,57,13.20
2015,08,29,11,58,13.80
2015,08,29,11,59,11.10
2015,08,29,12,00,11.60
2015,08,29,12,01,11.40
2015,08,29,12,02,13.70
2015,08,29,12,03,12.90
2015,08,29,12,04,13.40
2015,08,29,12,05,14.80
2015,08,29,12,06,13.10
2015,08,29,12,07,10.50
2015,08,29,12,08,13.90
2015,08,29,12,09,9.70
2015,08,29,12,10,14.20
2015,08,29,12,11,9.80
2015,08,29,12,12,11.10
2015,08,29,12,13,8.60
2015,08,29,12,14,10.90
2015,08,29,12,15,12.00
2015,08,29,12,16,9.20
2015,08,29,12,17,9.80
2015,08,29,12,18,7.10
2015,08,29,12,19,7.60
2015,08,29,12,20,3.60
2015,08,29,12,21,3.30
2015,08,29,12,22,6.60
2015,08,29,12,23,4.50
2015,08,29,12,24,10.50
2015,08,29,12,25,7.50
2015,08,29,12,26,3.90
2015,08,29,12,27,8.30
2015,08,29,12,28,10.70
2015,08,29,12,29,14.10
2015,08,29,12,30,15.40
2015,08,29,12,31,15.00
2015,08,29,12,32,11.20
2015,08,29,12,33,19.30
2015,08,29,12,34,12.10
2015,08,29,12,35,16.30
2015,08,29,12,36,16.10
2015,08,29,12,37,16.70
2015,08,29,12,38,8.90
2015,08,29,12,39,19.20
2015,08,29,12,40,14.90
2015,08,29,12,41,10.10
2015,08,29,12,42,13.10
2015,08,29,12,43,10.90
2015,08,29,12,44,12.80
2015,08,29,12,45,17.80
2015,08,29,12,46,10.70
2015,08,29,12,47,9.20
2015,08,29,12,48,13.10
2015,08,29,12,49,8.90
2015,08,29,12,50,7.70
2015,08,29,12,51,11.10
2015,08,29,12,52,10.80
2015,08,29,12,53,7.50
2015,08,29,12,54,10.90
2015,08,29,12,55,15.20
2015,08,29,12,56,14.70
2015,08,29,12,57,7.90
2015,08,29,12,58,12.30
2015,08,29,12,59,10.30
2015,08,29,13,00,8.90
2015,08,29,13,01,9.50
2015,08,29,13,02,8.00
2015,08,29,13,03,9.40
2015,08,29,13,04,9.20
2015,08,29,13,05,17.80
2015,08,29,13,06,13.80
2015,08,29,13,07,14.90
2015,08,29,13,08,11.40
2015,08,29,13,09,9.30
2015,08,29,13,10,8.70
2015,08,29,13,11,8.40
2015,08,29,13,12,6.70
2015,08,29,13,13,7.10
2015,08,29,13,14,4.10
2015,08,29,13,15,10.30
2015,08,29,13,16,8.10
2015,08,29,13,17,8.60
2015,08,29,13,18,4.70
2015,08,29,13,19,7.30
2015,08,29,13,20,6.90
2015,08,29,13,21,4.00
2015,08,29,13,22,4.30
2015,08,29,13,23,9.50
2015,08,29,13,24,7.70
2015,08,29,13,25,4.90
2015,08,29,13,26,8.50
2015,08,29,13,27,5.80
2015,08,29,13,28,4.30
2015,08,29,13,29,8.00
2015,08,29,13,30,3.50
2015,08,29,13,31,12.20
2015,08,29,13,32,8.00
2015,08,29,13,33,7.80
2015,08,29,13,34,10.10
2015,08,29,13,35,6.40
2015,08,29,13,36,3.50
2015,08,29,13,37,4.00
2015,08,29,13,38,6.20
2015,08,29,13,39,2.40
2015,08,29,13,40,3.20
2015,08,29,13,41,3.90
2015,08,29,13,42,3.50
2015,08,29,13,43,5.70
2015,08,29,13,44,4.90
2015,08,29,13,45,7.30
2015,08,29,13,46,2.00
2015,08,29,13,47,1.50
2015,08,29,13,48,3.20
2015,08,29,13,49,4.00
2015,08,29,13,50,2.60
2015,08,29,13,51,1.60
2015,08,29,13,52,0.80
2015,08,29,13,53,0.90
2015,08,29,13,54,0.70
2015,08,29,13,55,0.60
2015,08,29,13,56,1.10
2015,08,29,13,57,3.00
2015,08,29,13,58,4.80
2015,08,29,13,59,4.10
2015,08,29,14,00,2.60
2015,08,29,14,01,4.60
2015,08,29,14,02,2.70
2015,08,29,14,03,3.00
2015,08,29,14,04,3.20
2015,08,29,14,05,5.20
2015,08,29,14,06,4.60
2015,08,29,14,07,3.10
2015,08,29,14,08,3.60
2015,08,29,14,09,9.70
2015,08,29,14,10,6.70
2015,08,29,14,11,4.80
2015,08,29,14,12,6.70
2015,08,29,14,13,8.20
2015,08,29,14,14,7.80
2015,08,29,14,15,8.30
2015,08,29,14,16,6.10
2015,08,29,14,17,6.10
2015,08,29,14,18,7.90
2015,08,29,14,19,10.00
2015,08,29,14,20,8.00
2015,08,29,14,21,6.00
2015,08,29,14,22,7.20
2015,08,29,14,23,7.70
2015,08,29,14,24,6.70
2015,08,29,14,25,10.30
2015,08,29,14,26,11.30
2015,08,29,14,27,10.80
2015,08,29,14,28,11.70
2015,08,29,14,29,9.60
2015,08,29,14,30,14.40
2015,08,29,14,31,10.60
2015,08,29,14,32,10.40
2015,08,29,14,33,15.60
2015,08,29,14,34,12.80
2015,08,29,14,35,11.50
2015,08,29,14,36,7.00
2015,08,29,14,37,10.50
2015,08,29,14,38,15.10
2015,08,29,14,39,6.10
2015,08,29,14,40,15.70
2015,08,29,14,41,11.10
2015,08,29,14,42,13.50
2015,08,29,14,43,16.00
2015,08,29,14,44,14.10
2015,08,29,14,45,10.60
2015,08,29,14,46,9.70
2015,08,29,14,47,9.60
2015,08,29,14,48,13.50
2015,08,29,14,49,12.40
2015,08,29,14,50,18.90
2015,08,29,14,51,19.50
2015,08,29,14,52,11.70
2015,08,29,14,53,11.60
2015,08,29,14,54,14.30
2015,08,29,14,55,10.30
2015,08,29,14,56,12.30
2015,08,29,14,57,15.00
2015,08,29,14,58,10.90
2015,08,29,14,59,11.60
2015,08,29,15,00,9.50
2015,08,29,15,01,13.20
2015,08,29,15,02,17.00
2015,08,29,15,03,16.30
2015,08,29,15,04,14.60
2015,08,29,15,05,9.80
2015,08,29,15,06,15.30
2015,08,29,15,07,9.70
2015,08,29,15,08,14.10
2015,08,29,15,09,12.90
2015,08,29,15,10,14.60
2015,08,29,15,11,9.70
2015,08,29,15,12,10.80
2015,08,29,15,13,10.20
2015,08,29,15,14,10.40
2015,08,29,15,15,6.60
2015,08,29,15,16,11.30
2015,08,29,15,17,11.40
2015,08,29,15,18,13.00
2015,08,29,15,19,10.60
2015,08,29,15,20,12.90
2015,08,29,15,21,9.60
2015,08,29,15,22,12.00
2015,08,29,15,23,12.00
2015,08,29,15,24,13.70
2015,08,29,15,25,11.90
2015,08,29,15,26,13.20
2015,08,29,15,27,9.40
2015,08,29,15,28,10.60
2015,08,29,15,29,15.00
2015,08,29,15,30,13.10
2015,08,29,15,31,13.40
2015,08,29,15,32,14.20
2015,08,29,15,33,9.90
2015,08,29,15,34,13.20
2015,08,29,15,35,11.10
2015,08,29,15,36,12.80
2015,08,29,15,37,11.00
2015,08,29,15,38,11.30
2015,08,29,15,39,9.80
2015,08,29,15,40,12.70
2015,08,29,15,41,13.40
2015,08,29,15,42,12.90
2015,08,29,15,43,8.90
2015,08,29,15,44,13.80
2015,08,29,15,45,13.20
2015,08,29,15,46,5.40
2015,08,29,15,47,11.50
2015,08,29,15,48,10.10
2015,08,29,15,49,10.80
2015,08,29,15,50,14.60
2015,08,29,15,51,13.80
2015,08,29,15,52,18.40
2015,08,29,15,53,7.20
2015,08,29,15,54,8.20
2015,08,29,15,55,6.70
2015,08,29,15,56,10.40
2015,08,29,15,57,12.30
2015,08,29,15,58,12.50
2015,08,29,15,59,20.90
2015,08,29,16,00,8.30
2015,08,29,16,01,10.00
2015,08,29,16,02,13.60
2015,08,29,16,03,13.40
2015,08,29,16,04,15.70
2015,08,29,16,05,10.40
2015,08,29,16,06,11.50
2015,08,29,16,07,7.60
2015,08,29,16,08,11.90
2015,08,29,16,09,11.20
2015,08,29,16,10,10.00
2015,08,29,16,11,6.60
2015,08,29,16,12,9.70
2015,08,29,16,13,10.20
2015,08,29,16,14,5.00
2015,08,29,16,15,12.00
2015,08,29,16,16,5.30
2015,08,29,16,17,7.30
2015,08,29,16,18,9.70
2015,08,29,16,19,5.70
2015,08,29,16,20,2.60
2015,08,29,16,21,3.30
2015,08,29,16,22,3.30
2015,08,29,16,23,3.10
2015,08,29,16,24,3.70
2015,08,29,16,25,6.10
2015,08,29,16,26,9.20
2015,08,29,16,27,7.60
2015,08,29,16,28,4.60
2015,08,29,16,29,9.50
2015,08,29,16,30,13.90
2015,08,29,16,31,12.00
2015,08,29,16,32,15.80
2015,08,29,16,33,10.90
2015,08,29,16,34,11.60
2015,08,29,16,35,13.00
2015,08,29,16,36,16.60
2015,08,29,16,37,16.20
2015,08,29,16,38,20.40
2015,08,29,16,39,19.70
2015,08,29,16,40,8.90
2015,08,29,16,41,15.10
2015,08,29,16,42,5.10
2015,08,29,16,43,5.50
2015,08,29,16,44,8.40
2015,08,29,16,45,11.40
2015,08,29,16,46,13.70
2015,08,29,16,47,22.70
2015,08,29,16,48,17.70
2015,08,29,16,49,13.80
2015,08,29,16,50,20.50
2015,08,29,16,51,20.90
2015,08,29,16,52,13.40
2015,08,29,16,53,16.40
2015,08,29,16,54,15.60
2015,08,29,16,55,8.70
2015,08,29,16,56,16.20
2015,08,29,16,57,11.40
2015,08,29,16,58,12.80
2015,08,29,16,59,5.40
2015,08,29,17,00,3.60
2015,08,29,17,01,12.10
2015,08,29,17,02,9.20
2015,08,29,17,03,8.80
2015,08,29,17,04,13.80
2015,08,29,17,05,12.00
2015,08,29,17,06,10.30
2015,08,29,17,07,12.60
2015,08,29,17,08,6.10
2015,08,29,17,09,12.30
2015,08,29,17,10,9.00
2015,08,29,17,11,5.60
2015,08,29,17,12,3.50
2015,08,29,17,13,6.40
2015,08,29,17,14,2.70
2015,08,29,17,15,1.80
2015,08,29,17,16,2.80
2015,08,29,17,17,3.40
2015,08,29,17,18,2.20
2015,08,29,17,19,1.80
2015,08,29,17,20,1.10
2015,08,29,17,21,1.20
2015,08,29,17,22,2.30
2015,08,29,17,23,1.10
2015,08,29,17,24,0.10
2015,08,29,17,25,1.10
2015,08,29,17,26,1.60
2015,08,29,17,27,0.70
2015,08,29,17,28,2.00
2015,08,29,17,29,1.10
2015,08,29,17,30,2.50
2015,08,29,17,31,5.10
2015,08,29,17,32,6.60
2015,08,29,17,33,10.70
2015,08,29,17,34,6.10
2015,08,29,17,35,8.90
2015,08,29,17,36,8.90
2015,08,29,17,37,11.90
2015,08,29,17,38,12.80
2015,08,29,17,39,10.10
2015,08,29,17,40,9.30
2015,08,29,17,41,9.50
2015,08,29,17,42,10.20
2015,08,29,17,43,12.10
2015,08,29,17,44,14.40
2015,08,29,17,45,10.20
2015,08,29,17,46,12.60
2015,08,29,17,47,14.40
2015,08,29,17,48,9.10
2015,08,29,17,49,14.20
2015,08,29,17,50,14.10
2015,08,29,17,51,14.10
2015,08,29,17,52,8.90